TimeCDT,TemperatureF,Dew PointF,Humidity,Sea Level PressureIn,VisibilityMPH,Wind Direction,Wind SpeedMPH,Gust SpeedMPH,PrecipitationIn,Events,Conditions,WindDirDegrees,DateUTC
12:53 AM,59.0,48.0,67,30.04,10.0,Calm,Calm,-,N/A,,Clear,0,2013-10-07 05:53:00
1:53 AM,57.0,48.9,74,30.05,10.0,Calm,Calm,-,N/A,,Clear,0,2013-10-07 06:53:00
2:53 AM,57.0,50.0,77,30.06,10.0,NW,3.5,-,N/A,,Clear,310,2013-10-07 07:53:00
3:53 AM,55.0,50.0,83,30.05,10.0,NW,3.5,-,N/A,,Clear,310,2013-10-07 08:53:00
4:53 AM,55.9,48.0,75,30.06,10.0,Calm,Calm,-,N/A,,Clear,0,2013-10-07 09:53:00
5:53 AM,53.1,48.9,86,30.07,2.5,Calm,Calm,-,N/A,,Clear,0,2013-10-07 10:53:00
6:08 AM,53.6,48.2,82,30.07,4.0,Calm,Calm,-,N/A,,Clear,0,2013-10-07 11:08:00
6:53 AM,53.1,48.0,83,30.08,8.0,Calm,Calm,-,N/A,,Clear,0,2013-10-07 11:53:00
7:53 AM,54.0,50.0,86,30.09,6.0,Calm,Calm,-,N/A,,Clear,0,2013-10-07 12:53:00
8:53 AM,59.0,52.0,78,30.11,10.0,NW,3.5,-,N/A,,Clear,310,2013-10-07 13:53:00
9:53 AM,64.0,48.9,58,30.12,10.0,NW,5.8,-,N/A,,Clear,310,2013-10-07 14:53:00
10:53 AM,69.1,45.0,42,30.12,10.0,NW,8.1,-,N/A,,Clear,320,2013-10-07 15:53:00
11:53 AM,73.0,43.0,34,30.12,10.0,NNW,8.1,-,N/A,,Clear,340,2013-10-07 16:53:00
12:53 PM,73.9,41.0,30,30.09,10.0,NE,3.5,-,N/A,,Clear,40,2013-10-07 17:53:00
1:53 PM,75.9,39.9,27,30.07,10.0,NW,11.5,-,N/A,,Clear,320,2013-10-07 18:53:00
2:53 PM,77.0,39.9,26,30.05,10.0,North,9.2,-,N/A,,Clear,350,2013-10-07 19:53:00
3:53 PM,77.0,41.0,28,30.05,10.0,NW,5.8,-,N/A,,Clear,320,2013-10-07 20:53:00
4:53 PM,77.0,42.1,29,30.03,10.0,NNW,8.1,-,N/A,,Clear,330,2013-10-07 21:53:00
5:53 PM,75.0,43.0,32,30.04,10.0,NW,4.6,-,N/A,,Clear,320,2013-10-07 22:53:00
6:53 PM,71.1,45.0,39,30.04,10.0,NNW,3.5,-,N/A,,Clear,330,2013-10-07 23:53:00
7:53 PM,64.9,48.9,56,30.06,10.0,Calm,Calm,-,N/A,,Clear,0,2013-10-08 00:53:00
8:53 PM,57.9,52.0,81,30.07,10.0,Calm,Calm,-,N/A,,Clear,0,2013-10-08 01:53:00
9:53 PM,60.1,52.0,75,30.09,10.0,Calm,Calm,-,N/A,,Clear,0,2013-10-08 02:53:00
10:53 PM,57.0,52.0,83,30.10,10.0,Calm,Calm,-,N/A,,Clear,0,2013-10-08 03:53:00
11:53 PM,55.0,52.0,89,30.09,10.0,Calm,Calm,-,N/A,,Clear,0,2013-10-08 04:53:00